When you browse on this site, cookies collect data to enhance your experience and personalize the content and advertising you see.
Visit our Privacy Policy to learn more. By continuing to use the site, you agree to this use of cookies and data.
  • In Portugal
  • List of Countries
  • For 7 days
  • Water Temperature
  • Satellite Maps
  • Weather Map
  • Weather Widgets
  • user-avatar
    Login

    Hourly Weather Czarnoszki

    Today, 16 July, Tuesday

    Time Temperature Precipitation Wind Pressure Humidity
    00:00 +14°C° 0 mm 2 mps 743 mmHg 90%
    01:00 +14°C° 0 mm 2 mps 743 mmHg 87%
    02:00 +14°C° 0 mm 2 mps 742 mmHg 86%
    03:00 +13°C° 0 mm 2 mps 742 mmHg 84%
    04:00 +12°C° 0 mm 3 mps 741 mmHg 82%
    05:00 +13°C° 0 mm 3 mps 741 mmHg 80%
    06:00 +13°C° 0 mm 4 mps 741 mmHg 78%
    07:00 +14°C° 0 mm 4 mps 741 mmHg 76%
    08:00 +14°C° 0.1 mm 5 mps 741 mmHg 77%
    09:00 +15°C° 0.1 mm 5 mps 741 mmHg 79%
    10:00 +15°C° 0.1 mm 5 mps 741 mmHg 80%
    11:00 +17°C° 0.3 mm 5 mps 741 mmHg 73%
    12:00 +19°C° 0.3 mm 6 mps 741 mmHg 65%
    13:00 +21°C° 0.3 mm 6 mps 741 mmHg 57%
    14:00 +21°C° 0.2 mm 6 mps 741 mmHg 55%
    15:00 +21°C° 0.2 mm 6 mps 741 mmHg 54%
    16:00 +21°C° 0.2 mm 5 mps 741 mmHg 52%
    17:00 +19°C° 0 mm 5 mps 741 mmHg 57%
    18:00 +18°C° 0 mm 4 mps 741 mmHg 62%
    19:00 +17°C° 0 mm 3 mps 741 mmHg 67%
    20:00 +15°C° 0 mm 4 mps 741 mmHg 74%
    21:00 +14°C° 0 mm 4 mps 741 mmHg 81%
    22:00 +13°C° 0 mm 4 mps 741 mmHg 89%
    23:00 +13°C° 0 mm 4 mps 741 mmHg 88%

    Tomorrow, 17 July, Wednesday

    Time Temperature Precipitation Wind Pressure Humidity
    00:00 +13°C° 0 mm 4 mps 741 mmHg 88%
    01:00 +13°C° 0 mm 4 mps 741 mmHg 87%
    02:00 +12°C° 0 mm 4 mps 741 mmHg 90%
    03:00 +11°C° 0 mm 3 mps 741 mmHg 92%
    04:00 +11°C° 0 mm 3 mps 741 mmHg 95%
    05:00 +12°C° 0 mm 4 mps 741 mmHg 88%
    06:00 +13°C° 0 mm 4 mps 741 mmHg 80%
    07:00 +15°C° 0 mm 5 mps 742 mmHg 73%
    08:00 +16°C° 0.1 mm 5 mps 742 mmHg 68%
    09:00 +18°C° 0.1 mm 4 mps 742 mmHg 63%
    10:00 +19°C° 0.1 mm 4 mps 742 mmHg 58%
    11:00 +19°C° 0.1 mm 4 mps 742 mmHg 59%
    12:00 +19°C° 0.1 mm 4 mps 742 mmHg 60%
    13:00 +19°C° 0.1 mm 4 mps 742 mmHg 61%
    14:00 +19°C° 0 mm 4 mps 743 mmHg 59%
    15:00 +19°C° 0 mm 5 mps 743 mmHg 57%
    16:00 +20°C° 0 mm 5 mps 743 mmHg 55%
    17:00 +19°C° 0 mm 4 mps 743 mmHg 60%
    18:00 +18°C° 0 mm 4 mps 742 mmHg 64%
    19:00 +16°C° 0 mm 3 mps 742 mmHg 69%
    20:00 +14°C° 0 mm 3 mps 743 mmHg 76%
    21:00 +13°C° 0 mm 2 mps 743 mmHg 82%
    22:00 +12°C° 0 mm 2 mps 743 mmHg 89%
    23:00 +12°C° 0 mm 2 mps 743 mmHg 91%

    Day after tomorrow, 18 July, Thursday

    Time Temperature Precipitation Wind Pressure Humidity
    00:00 +10°C° 0 mm 2 mps 743 mmHg 92%
    01:00 +10°C° 0 mm 2 mps 743 mmHg 94%
    02:00 +10°C° 0 mm 2 mps 743 mmHg 94%
    03:00 +10°C° 0 mm 2 mps 743 mmHg 94%
    04:00 +10°C° 0 mm 2 mps 743 mmHg 94%
    05:00 +13°C° 0 mm 2 mps 743 mmHg 85%
    06:00 +15°C° 0 mm 2 mps 743 mmHg 77%
    07:00 +17°C° 0 mm 2 mps 743 mmHg 69%
    08:00 +19°C° 0 mm 2 mps 744 mmHg 63%
    09:00 +20°C° 0 mm 2 mps 744 mmHg 56%
    10:00 +23°C° 0 mm 1 mps 744 mmHg 50%
    11:00 +23°C° 0 mm 1 mps 744 mmHg 49%
    12:00 +23°C° 0 mm 1 mps 744 mmHg 48%
    13:00 +24°C° 0 mm 1 mps 744 mmHg 48%
    14:00 +24°C° 0 mm 1 mps 744 mmHg 49%
    15:00 +24°C° 0 mm 1 mps 744 mmHg 50%
    16:00 +23°C° 0 mm 1 mps 743 mmHg 51%
    17:00 +22°C° 0.1 mm 1 mps 743 mmHg 57%
    18:00 +22°C° 0.1 mm 1 mps 743 mmHg 63%
    19:00 +21°C° 0.1 mm 1 mps 743 mmHg 69%
    20:00 +18°C° 0 mm 2 mps 743 mmHg 73%
    21:00 +16°C° 0 mm 2 mps 744 mmHg 78%
    22:00 +15°C° 0 mm 2 mps 744 mmHg 82%
    23:00 +14°C° 0 mm 2 mps 744 mmHg 83%

    19 July, Friday

    Time Temperature Precipitation Wind Pressure Humidity
    00:00 +14°C° 0 mm 2 mps 744 mmHg 85%
    01:00 +13°C° 0 mm 2 mps 743 mmHg 86%
    02:00 +13°C° 0 mm 2 mps 743 mmHg 87%
    03:00 +13°C° 0 mm 2 mps 743 mmHg 88%
    04:00 +13°C° 0 mm 2 mps 743 mmHg 89%
    05:00 +14°C° 0 mm 2 mps 743 mmHg 83%
    06:00 +16°C° 0 mm 2 mps 743 mmHg 78%
    07:00 +17°C° 0 mm 2 mps 743 mmHg 72%
    08:00 +19°C° 0 mm 2 mps 743 mmHg 65%
    09:00 +21°C° 0 mm 2 mps 744 mmHg 58%
    10:00 +24°C° 0 mm 2 mps 744 mmHg 51%
    11:00 +24°C° 0 mm 2 mps 744 mmHg 49%
    12:00 +25°C° 0 mm 2 mps 744 mmHg 46%
    13:00 +25°C° 0 mm 2 mps 744 mmHg 44%
    14:00 +25°C° 0 mm 2 mps 743 mmHg 46%
    15:00 +25°C° 0 mm 2 mps 743 mmHg 47%
    16:00 +25°C° 0 mm 2 mps 743 mmHg 48%
    17:00 +24°C° 0.1 mm 2 mps 743 mmHg 55%
    18:00 +23°C° 0.1 mm 1 mps 743 mmHg 61%
    19:00 +22°C° 0.1 mm 1 mps 743 mmHg 68%
    20:00 +21°C° 0.2 mm 1 mps 743 mmHg 73%
    21:00 +20°C° 0.2 mm 1 mps 744 mmHg 78%
    22:00 +18°C° 0.2 mm 1 mps 744 mmHg 83%
    23:00 +18°C° 0.4 mm 1 mps 744 mmHg 85%

    20 July, Saturday

    Time Temperature Precipitation Wind Pressure Humidity
    00:00 +18°C° 0.4 mm 1 mps 744 mmHg 87%
    01:00 +17°C° 0.4 mm 2 mps 744 mmHg 89%
    02:00 +16°C° 0.1 mm 2 mps 744 mmHg 90%
    03:00 +16°C° 0.1 mm 1 mps 744 mmHg 91%
    04:00 +15°C° 0.1 mm 1 mps 744 mmHg 91%
    05:00 +16°C° 0 mm 1 mps 744 mmHg 87%
    06:00 +19°C° 0 mm 1 mps 744 mmHg 83%
    07:00 +20°C° 0 mm 1 mps 744 mmHg 79%
    08:00 +22°C° 0.1 mm 1 mps 745 mmHg 72%
    09:00 +23°C° 0.1 mm 1 mps 745 mmHg 65%
    10:00 +25°C° 0.1 mm 1 mps 745 mmHg 58%
    11:00 +25°C° 1.5 mm 1 mps 745 mmHg 60%
    12:00 +25°C° 1.5 mm 2 mps 745 mmHg 62%
    13:00 +25°C° 1.5 mm 2 mps 745 mmHg 64%
    14:00 +25°C° 0.9 mm 2 mps 745 mmHg 65%
    15:00 +25°C° 0.9 mm 2 mps 745 mmHg 65%
    16:00 +25°C° 0.9 mm 3 mps 745 mmHg 65%
    17:00 +24°C° 0.5 mm 2 mps 745 mmHg 70%
    18:00 +23°C° 0.5 mm 2 mps 745 mmHg 75%
    19:00 +22°C° 0.5 mm 1 mps 745 mmHg 80%
    20:00 +21°C° 0.1 mm 1 mps 745 mmHg 83%
    21:00 +19°C° 0.1 mm 1 mps 745 mmHg 87%
    22:00 +18°C° 0.1 mm 1 mps 745 mmHg 90%
    23:00 +18°C° 0 mm 1 mps 745 mmHg 90%

    21 July, Sunday

    Time Temperature Precipitation Wind Pressure Humidity
    00:00 +18°C° 0 mm 1 mps 745 mmHg 89%
    01:00 +16°C° 0 mm 0 mps 745 mmHg 89%
    02:00 +16°C° 0 mm 1 mps 745 mmHg 89%
    03:00 +16°C° 0 mm 1 mps 745 mmHg 89%
    04:00 +16°C° 0 mm 1 mps 745 mmHg 90%
    05:00 +18°C° 0.1 mm 1 mps 745 mmHg 88%
    06:00 +19°C° 0.1 mm 1 mps 745 mmHg 86%
    07:00 +19°C° 0.1 mm 1 mps 745 mmHg 84%
    08:00 +21°C° 0.3 mm 1 mps 746 mmHg 77%
    09:00 +22°C° 0.3 mm 1 mps 746 mmHg 71%
    10:00 +24°C° 0.3 mm 2 mps 746 mmHg 64%
    11:00 +24°C° 0.5 mm 2 mps 746 mmHg 62%
    12:00 +25°C° 0.5 mm 1 mps 746 mmHg 59%
    13:00 +26°C° 0.5 mm 1 mps 746 mmHg 57%
    14:00 +25°C° 0.7 mm 2 mps 746 mmHg 60%
    15:00 +25°C° 0.7 mm 2 mps 746 mmHg 63%
    16:00 +25°C° 0.7 mm 2 mps 746 mmHg 65%
    17:00 +24°C° 0.3 mm 2 mps 746 mmHg 71%
    18:00 +23°C° 0.3 mm 2 mps 746 mmHg 77%
    19:00 +21°C° 0.3 mm 2 mps 746 mmHg 82%
    20:00 +19°C° 0 mm 2 mps 746 mmHg 86%
    21:00 +18°C° 0 mm 2 mps 746 mmHg 90%
    22:00 +17°C° 0 mm 2 mps 746 mmHg 94%
    23:00 +16°C° 0 mm 2 mps 746 mmHg 94%
    Show more